Location: Castelbiague
(43.0361°N, 0.9246°E)
Time: 08:51:53
(UTC+00:00)

USA 215 - Pass Details

Date: 20 October 2021
Orbit: 1099 x 1109 km, 123.0° (Epoch: 20 November)

Event Time Altitude Azimuth Distance (km) Brightness Sun altitude
Exits shadow 22:06:24 14° 321° (NW) 2,682 5.7 -51.7°
Drops below altitude 10° 22:07:13 10° 318° (NW) 2,964 6.0 -51.8°
Sets 22:09:50 0° 311° (NW) 3,924 6.7 -52.1°
